Regional Weather Roundup
Issued by NWS

Home | Current Version | Previous Version | Graphics & Text | Print | Product List | Glossary On
Versions: 1 2 3 4 5 6 7 8 9 10 11 12 13 14 15 16 17 18 19 20 21 22 23 24 25 26 27 28 29 30 31 32 33 34 35 36 37 38 39 40 41 42 43 44 45 46 47 48 49 50
000
ASUS43 KTOP 261008
RWRKS

WEATHER ROUNDUP FOR KANSAS
NATIONAL WEATHER SERVICE GOODLAND KS
500 AM CDT TUE MAY 26 2015

NOTE:  "FAIR" INDICATES FEW OR NO CLOUDS BELOW 12,000 FEET WITH NO
SIGNIFICANT WEATHER AND/OR OBSTRUCTIONS TO VISIBILITY.

KSZ001>006-013>018-027>032-041>047-261100-
NORTHWEST KANSAS

CITY           SKY/WX    TMP DP  RH WIND       PRES   REMARKS
GOODLAND       CLEAR     45  44  97 W3        29.94R
HAYS           MOCLDY    55  46  71 W9        29.85S
HILL CITY      PTCLDY    55  51  86 NW9       29.87R
RUSSELL        MOCLDY    57  53  86 W13       29.81S
$$

KSZ061>065-074>080-084>089-261100-
SOUTHWEST KANSAS

CITY           SKY/WX    TMP DP  RH WIND       PRES   REMARKS
DODGE CITY     CLEAR     54  50  86 W5        29.90S
ELKHART          N/A     54  48  80 N8          N/A
GARDEN CITY    PTCLDY    50  48  93 CALM      29.91R
GREAT BEND     CLOUDY    57  52  82 W12       29.85R
LIBERAL        CLEAR     54  48  82 N7        29.93R
PRATT          MOCLDY    54  52  94 SW8       29.89R
$$

KSZ066>073-081>083-090>101-261100-
SOUTHEAST KANSAS

CITY           SKY/WX    TMP DP  RH WIND       PRES   REMARKS
CHANUTE        LGT RAIN  61  60  97 CALM      29.84R FOG
HUTCHINSON     CLOUDY    59  55  87 SW7       29.82S
MEDICINE LODGE   N/A     55  53  93 NW3       29.88R
NEWTON         CLOUDY    57  52  82 S7        29.84R
PARSONS        CLOUDY    62  61  96 CALM      29.86R
WICHITA INTL   CLOUDY    58  58 100 CALM      29.83R
WICHITA JABRA  CLOUDY    57  56  96 CALM      29.82R FOG
WICHITA MCCONL CLOUDY    58  57  96 S3        29.84R
WINFIELD       CLOUDY    58  58 100 S7        29.86R
$$

KSZ007>012-019>026-033>040-048>060-102>105-261100-
NORTHEAST KANSAS

CITY           SKY/WX    TMP DP  RH WIND       PRES   REMARKS
CONCORDIA      CLOUDY    58  55  90 S7        29.77F
EMPORIA        CLOUDY    59  58  96 SW5       29.80R
LAWRENCE       LGT RAIN  60  58  92 S3        29.77S
MANHATTAN      CLOUDY    60  59  96 W5        29.79S
OLATHE IND     LGT RAIN  60  59  96 CALM      29.79S
OLATHE EXE     LGT RAIN  60  59  96 N3        29.78R
SALINA         CLOUDY    59  56  89 SW7       29.79F
TOPEKA BILLARD CLOUDY    60  59  96 SW3       29.78R
TOPEKA FORBES  CLOUDY    61  58  90 SW6       29.77R
$$



USA.gov is the U.S. government's official web portal to all federal, state and local government web resources and services.